YZ-1S DEB, 43644

Orbit data source: Space-Track

YZ-1S DEB, 43644 is space debris in SSO originally from a launch on Tue, 09 Oct 2018 UTC launched from the Jiuquan Satellite Launch Center, China (JSC). Debris objects in space refer to the collection of defunct objects orbiting the Earth. Examples of debris include non-operational satellites, rocket bodies, and fragments generated from explosions, collisions, or faulty payload assembly.

Loading next visibility...
Identifier
43644, 2018-077C
Orbit
SSO
Country
Flag of CNCN / PRC
Related business
Manufacturer
CALT
Mission
Spacecraft
Bus & Motor
Unknown
Mass
~200 kg wet, ~200 kg dry
Launch date (UTC)
2018-10-09 (7 years ago)
Launch vehicle
Unknown
Launch site
Jiuquan Satellite Launch Center, China (JSC)
Object type
Payload
Rocket body
Debris
Shape & HBR
Cyl + Cone, 1.5 m
Radar Cross Section
8.247 m², Large (>1 m²)

Expand to show TLE details & history
Last TLE update: 11 hours ago

TLE from 11 hours ago
0 YZ-1S DEB
1 43644U 18077C   25308.11759691  .00003412  00000-0  56388-3 0  9994
2 43644  97.9506 350.8165 0008274  69.0318 291.1773 14.70982264377533
Epoch: 2025-11-04T02:49Z
TLE epoch observation values (Epoch: 2025-11-04T02:49:20.373Z)
Latitude
-0.00004°
Longitude
-95.1276°
Altitude
658.842 km
Speed
7.529 km/s
True Right ascension
23h 23m 15s
True Declination
0° 00' 00"
Sunlit
Object was in full shadow at epoch
Visualization orbit readout
Latitude
Unknown
Longitude
Unknown
Altitude
Unknown
Speed
Unknown
Apparent Right ascension
Unknown
Apparent Declination
Unknown
Sunlit
N/A
Visualization observer readout
Local Sidereal Time
09:59:17
Azimuth
Unknown
Elevation
Unknown
Doppler factor
Unknown
Orbital elements
Apogee altitude
660.808 km
Perigee altitude
649.17 km
Semi-major axis
7,033.126 km
Eccentricity
0.00083
Inclination
97.9506°
RAAN
350.8165°
Arg. of periapsis
69.0318°
True anomaly
291.08886°
Mean anomaly
291.1773°
Eccentric anomaly
291.13308°
Mean motion
3.67977 °/min
Orbital period
97.83 mins
BSTAR
0.00056388
Loading maneuver chart data...
Computing Atmospheric mass density...
Loading historical data...
Loading historical data...
Loading historical data...
Loading historical data...
Loading historical data...
Loading historical data...
Loading historical data...
Other satellites on launch #77 in the year 2018 (2018-10-09 UTC)

Documentation

Showing up to 5 results
|